Overview Statistics Trail Chart Weather Telemetry Raw packets
 

This is the latest recevied weather packets stored in our database for station/object SV9FBP-13. If no packets are shown the sender has not sent any weather packets the latest 10 day(s).

<< 31 32 33 34 35 36 37 >>
Time Temp. Humidity Pressure Rain* Wind** Luminosity Snow
1787925130 33.89° C 28% 1007.5 hPa 0 mm - - -
1787924229 33.89° C 27% 1007.6 hPa 0 mm - - -
1787923329 34.44° C 26% 1007.8 hPa 0 mm - - -
1787922425 34.44° C 26% 1007.7 hPa 0 mm - - -
1787921522 34.44° C 23% 1007.8 hPa 0 mm - - -
1787920620 35° C 25% 1007.7 hPa 0 mm - - -
1787919718 35.56° C 23% 1007.7 hPa 0 mm - - -
1787918816 35.56° C 23% 1007.8 hPa 0 mm - - -
1787917914 35.56° C 23% 1008.1 hPa 0 mm - - -
1787917011 35.56° C 22% 1008.2 hPa 0 mm - - -
1787916109 35.56° C 23% 1008.4 hPa 0 mm - - -
1787915208 35° C 24% 1008.3 hPa 0 mm - - -
1787914306 35° C 23% 1008.3 hPa 0 mm - - -
1787913403 35° C 24% 1008.3 hPa 0 mm - - -
1787912501 35° C 24% 1008.1 hPa 0 mm - - -
1787911599 35° C 25% 1008.3 hPa 0 mm - - -
1787910697 34.44° C 28% 1008.3 hPa 0 mm - - -
1787909795 34.44° C 24% 1008.4 hPa 0 mm - - -
1787908892 34.44° C 26% 1008.5 hPa 0 mm - - -
1787907990 35° C 24% 1008.4 hPa 0 mm - - -
1787907088 35° C 23% 1008.2 hPa 0 mm - - -
1787906186 35° C 23% 1007.8 hPa 0 mm - - -
1787905284 34.44° C 23% 1008 hPa 0 mm - - -
1787904381 34.44° C 24% 1008.3 hPa 0 mm - - -
1787903479 33.89° C 26% 1008.2 hPa 0 mm - - -

* Rain latest hour (hover to see other rain measurements)
** Current wind speed in m/s (hover to see current wind gust speed)